Location: Pabrico
(37.5827°N, 122.0063°W)
Time: 10:52:13
(UTC+00:00)

Cosmos 1867 - Pass Details

Date: 13 April 2024
Orbit: 772 x 802 km, 65.0° (Epoch: 23 May)

Event Time Altitude Azimuth Distance (km) Brightness Sun altitude
Rises 12:09:49 0° 320° (NW) 3,316 6.7 -16.7°
Reaches altitude 10° 12:12:26 10° 311° (NW) 2,380 5.8 -16.3°
Maximum altitude 12:17:20 34° 248° (WSW) 1,286 4.1 -15.4°
Drops below altitude 10° 12:22:11 10° 185° (S) 2,357 5.7 -14.5°
Sets 12:24:47 0° 176° (S) 3,278 6.6 -14.1°
